Dewpoint
52 52 52 51 51 50 50 50 50 49 48 43 43 39 33 32 33 41 44 50 44 40 35 38 33 34 37 38 32 37 32 32 31 30 30 29 29 28 27 27 29 32 35 36 35 36 29 30 27 24 26 24 27 28 27 33 31 31 30 26 27 52 24 25 27 29 33 33 34 41 37 35 32 34 36 29 23 18 20 18 18 22 26 23 19 14 23
53 52 52 51 51 50 50 50 49 49 49 44 43 37 33 33 36 38 45 49 46 39 32 31 30 36 42 37 34 34 33 32 31 32 32 30 32 26 28 25 29 29 39 37 31 37 25 30 25 25 26 24 26 30 31 32 29 25 26 27 35 18 22 25 22 21 24 28 31 32 35 38 31 30 35 36 33 32 29 28 27 26 26 26 20 14 19
53 53 52 51 51 50 50 50 49 49 49 47 42 41 39 38 41 39 43 47 48 38 38 33 29 35 36 35 34 33 32 33 32 34 33 32 31 27 25 25 32 35 39 39 40 36 30 27 28 29 28 27 29 28 31 32 30 32 40 40 31 25 26 27 19 18 18 17 17 22 24 30 34 38 36 37 33 29 27 23 20 18 18 26 19 17 25
53 53 52 51 51 50 50 50 49 49 49 49 43 41 40 41 32 39 41 44 44 44 44 42 37 35 36 32 35 33 33 35 38 33 33 33 33 27 26 28 38 37 33 32 34 33 34 30 30 25 26 27 23 25 35 32 32 53 53 49 36 30 32 29 26 23 24 24 27 32 33 31 29 31 34 35 33 32 30 27 21 20 22 24 25 26 28
53 53 52 52 51 51 51 50 50 49 48 49 44 42 41 41 39 37 35 43 41 41 42 43 42 38 39 31 37 37 37 37 36 35 33 32 32 31 27 27 30 31 34 33 33 34 30 32 27 29 27 27 26 30 35 47 55 50 48 49 35 33 29 31 30 30 29 31 31 32 34 30 30 29 28 34 31 32 30 22 22 28 23 23 28 30 28
53 53 52 52 52 51 51 51 50 49 48 49 44 42 43 38 39 43 43 38 35 33 35 43 42 43 42 38 40 39 38 38 34 37 36 35 37 31 29 29 31 32 34 34 28 32 32 30 24 34 31 29 32 25 26 28 40 43 33 44 33 32 24 31 29 29 33 36 35 37 34 33 32 33 30 30 33 32 28 31 30 28 21 25 29 31 29
53 52 52 52 52 52 51 51 50 49 48 48 46 43 44 44 44 45 46 39 40 40 42 44 44 40 42 39 40 39 39 38 39 38 37 35 36 31 25 29 31 35 38 33 30 33 26 24 32 31 30 31 29 26 27 28 34 33 34 36 36 30 26 32 30 29 32 33 36 36 34 32 31 32 33 31 34 32 32 32 32 31 29 31 31 33 33
53 52 52 52 52 52 52 51 51 49 48 46 46 45 43 42 43 41 44 42 42 42 42 42 41 39 42 34 39 41 40 39 40 42 37 32 36 40 32 31 38 35 38 37 32 35 35 34 27 34 31 31 31 31 32 27 30 33 32 37 35 25 19 35 32 27 29 33 36 36 36 32 29 30 33 34 34 33 34 33 36 37 31 34 32 32 33
52 52 52 52 52 52 52 51 51 50 48 40 43 41 44 44 46 46 41 38 40 43 41 41 38 34 38 37 39 39 40 39 41 41 42 37 38 44 41 36 41 42 41 40 40 40 38 39 37 36 31 26 31 26 28 31 30 33 33 36 34 32 21 34 29 23 25 31 34 34 34 32 29 28 29 31 30 26 28 29 35 28 28 32 31 31 33
52 52 52 52 51 51 51 51 51 50 47 42 41 41 42 45 46 45 41 36 42 40 41 40 36 34 39 40 40 38 39 40 41 35 37 41 42 46 46 44 42 39 41 39 40 42 42 43 40 37 32 36 37 29 29 29 32 31 33 39 29 32 32 28 26 20 20 30 33 32 30 27 25 27 30 32 33 31 32 33 35 35 33 31 27 31 35
52 52 52 52 51 51 51 51 51 50 46 42 41 40 43 43 43 44 37 33 33 39 39 38 38 42 42 40 37 38 40 40 41 35 34 43 44 47 46 43 40 38 39 42 44 45 45 45 44 32 31 32 32 33 32 31 33 35 38 36 36 34 33 28 30 21 22 28 31 29 21 14 20 30 35 36 32 34 30 30 33 35 36 33 34 34 35
52 52 52 52 51 51 51 51 51 51 50 45 42 42 43 45 45 42 35 29 31 36 37 35 39 40 41 40 39 38 38 39 39 42 40 42 44 46 44 43 42 35 42 45 44 46 44 37 35 34 33 33 30 31 30 28 30 39 38 36 35 33 33 29 29 25 24 27 27 24 15 21 29 34 37 39 38 37 35 36 36 37 37 36 35 35 36
52 52 51 51 51 51 51 51 51 51 51 48 43 39 43 46 44 43 39 34 28 36 32 34 40 41 42 41 38 39 39 39 41 43 43 42 43 45 44 43 42 42 43 44 42 40 36 34 34 35 32 34 33 31 29 31 30 35 37 38 35 31 31 28 26 26 25 23 19 15 21 27 32 34 37 40 40 38 34 32 34 36 37 37 35 36 37
53 52 52 51 51 51 51 51 51 51 51 50 45 41 42 45 45 42 38 31 32 37 40 37 33 37 38 38 39 39 40 41 41 43 42 44 44 44 44 44 43 43 44 46 40 37 34 32 28 29 30 32 34 30 31 32 33 33 34 37 37 35 33 30 27 28 24 24 22 25 30 29 31 29 30 29 29 31 30 26 30 35 38 38 36 38 38
53 52 52 52 51 51 51 51 51 51 50 50 47 43 42 43 47 46 42 38 32 35 36 26 35 37 38 39 39 39 38 40 40 39 42 44 43 44 44 43 42 42 45 42 38 36 31 31 27 26 28 26 23 27 31 28 32 38 39 37 36 34 31 32 28 25 26 26 23 22 22 20 26 32 36 39 37 37 36 29 29 36 37 39 36 36 36
52 52 52 52 51 51 51 51 51 51 50 50 47 44 43 45 46 46 42 37 32 28 32 34 39 39 38 38 39 38 36 36 38 39 39 40 43 42 42 41 41 44 42 39 38 33 31 30 27 25 24 25 30 27 26 34 27 32 37 36 34 34 35 33 29 26 24 23 23 20 19 25 30 32 35 38 40 39 36 29 26 32 37 39 37 37 37
52 52 52 52 51 51 51 51 51 51 50 50 48 46 42 47 47 45 43 40 33 30 34 40 42 40 37 37 38 36 38 35 40 35 34 39 41 42 40 39 44 44 41 39 35 33 31 29 29 28 29 32 27 25 29 29 27 28 32 34 34 34 30 30 27 24 24 25 22 23 21 22 28 34 36 37 41 36 31 23 25 33 36 40 38 37 37
52 52 52 52 51 51 51 51 51 51 50 50 48 46 43 46 47 47 44 40 37 35 38 42 38 37 37 37 36 39 40 39 36 40 37 39 41 38 36 40 42 44 43 36 34 31 27 26 29 27 29 35 31 29 26 30 25 24 25 30 29 28 26 28 30 28 25 26 23 24 26 32 34 35 37 38 40 32 26 23 30 35 37 41 39 38 37
51 51 52 52 51 51 51 51 51 50 50 50 48 42 44 46 48 49 45 42 37 32 35 39 42 39 41 41 39 40 41 37 37 36 33 34 38 38 38 40 43 40 43 33 32 29 31 28 31 30 28 28 30 28 31 25 27 30 29 27 28 27 28 26 26 24 26 27 24 28 27 32 37 37 40 40 31 23 25 31 35 36 38 41 41 39 40
50 51 52 52 51 51 51 51 50 50 50 50 48 43 42 45 48 49 45 41 42 41 42 40 39 36 39 37 35 33 34 35 38 36 33 31 37 38 36 36 38 43 40 38 31 31 29 28 29 30 27 28 31 34 27 29 32 31 31 30 28 30 27 28 28 28 25 23 22 22 22 28 39 38 33 33 27 30 32 37 39 41 39 41 42 41 40
50 50 51 51 52 51 51 51 50 50 50 50 48 44 42 46 48 49 48 44 41 36 36 39 41 39 39 39 38 36 34 31 34 31 34 37 38 37 33 30 38 41 41 38 31 35 28 33 33 30 32 30 31 30 29 26 28 33 31 31 29 34 26 25 26 30 28 23 23 25 31 33 39 37 31 33 33 36 37 41 38 42 42 42 42 43 42
49 49 50 51 52 50 50 51 50 49 50 50 49 43 41 44 46 48 48 47 40 35 36 39 40 39 39 39 38 37 36 35 34 34 33 31 35 37 36 42 43 42 44 41 38 37 39 39 36 33 34 33 35 26 29 24 24 30 33 31 26 33 30 32 27 32 29 28 30 32 35 37 39 39 38 38 40 41 39 42 41 41 42 44 43 42 44
49 49 49 50 51 51 51 51 51 50 49 50 49 44 42 42 43 46 47 43 43 42 44 44 44 43 44 44 43 41 39 38 38 39 37 35 32 35 39 40 40 43 48 44 41 40 40 37 34 39 36 36 34 34 33 28 25 30 28 33 31 37 37 36 32 32 35 36 36 39 42 43 44 45 43 43 44 45 42 42 41 42 43 44 42 43 44
48 49 49 50 51 52 51 51 51 50 49 49 49 47 45 45 45 46 45 41 38 34 34 37 35 31 40 39 39 39 44 43 43 41 42 39 32 32 35 40 43 41 40 44 44 39 38 38 39 38 35 38 36 32 31 30 29 33 32 32 35 38 39 35 32 35 32 30 35 40 42 43 44 45 46 46 46 45 44 43 44 44 45 45 45 45 45
48 48 49 50 50 51 51 51 51 50 50 50 49 48 47 45 44 45 42 34 35 33 28 32 34 34 40 40 38 36 37 38 46 43 41 41 37 33 32 39 45 39 39 42 40 37 32 34 36 36 34 38 38 33 34 30 33 36 30 31 34 35 39 36 36 34 32 30 37 40 42 44 44 45 44 43 44 45 45 45 45 46 46 46 46 45 45
47 48 49 49 50 51 51 51 50 50 50 50 49 46 44 44 44 45 45 43 41 37 34 32 35 40 39 35 34 34 35 36 35 35 36 37 39 37 35 43 42 44 44 43 41 36 33 34 32 33 34 33 39 33 32 35 35 37 35 35 38 39 39 32 37 35 36 37 38 41 40 39 40 43 44 45 45 46 46 46 46 45 44 44 44 44 44
47 48 48 49 50 50 51 51 51 51 50 50 48 44 45 46 45 44 42 41 33 30 31 32 37 37 36 36 37 37 36 34 34 33 31 33 36 38 37 38 40 39 39 39 37 32 31 31 32 35 36 38 38 38 37 37 36 35 32 36 40 36 35 38 35 32 29 33 37 40 34 33 38 40 43 45 47 46 45 45 45 44 44 43 42 42 43
48 48 48 49 50 50 51 51 51 51 50 49 47 45 45 44 44 44 44 43 37 31 31 33 34 35 37 34 38 36 34 37 34 31 29 29 38 40 38 38 40 39 39 35 31 34 34 32 35 34 37 38 36 34 39 38 36 34 35 36 39 35 36 37 31 31 32 35 38 41 40 40 40 41 43 45 47 46 45 44 44 44 44 43 41 41 41
48 48 48 49 50 50 50 51 51 51 50 48 43 41 41 43 45 45 46 45 41 38 35 36 38 33 23 24 34 37 36 35 35 33 30 33 39 41 40 40 38 41 38 33 30 30 31 32 35 35 35 38 37 33 34 32 31 32 34 37 40 40 41 39 37 37 38 39 39 42 41 37 39 42 44 43 45 46 45 45 46 44 44 43 41 42 41
48 48 48 49 49 49 49 50 51 50 49 45 39 31 32 37 42 44 47 46 43 40 33 32 30 30 35 38 37 37 37 36 34 33 32 29 38 39 38 39 41 43 40 34 35 31 31 32 32 35 38 41 35 32 32 29 29 33 36 37 39 41 42 43 41 36 35 37 40 43 43 41 43 45 44 42 42 47 46 46 45 45 43 41 40 40 40
48 48 48 48 48 48 49 50 51 50 48 44 34 27 26 25 36 45 48 47 43 40 34 32 33 34 31 36 39 36 34 33 32 31 31 31 33 36 36 39 40 40 34 36 34 32 30 32 33 38 39 40 36 32 32 30 28 30 34 38 40 41 41 41 42 42 40 39 41 42 42 42 42 39 38 39 40 43 44 43 46 47 42 42 41 41 41
47 47 47 48 48 48 49 49 50 50 48 44 37 30 30 34 41 43 47 47 43 38 31 31 31 29 27 33 35 38 35 33 33 32 31 36 32 36 35 34 36 38 36 33 34 34 32 30 34 36 36 39 39 35 32 31 31 33 36 38 39 41 41 41 40 40 41 42 40 38 37 37 38 38 37 38 40 42 43 43 43 44 45 42 42 42 42
47 47 47 47 48 48 49 49 49 49 46 46 48 48 48 48 49 49 48 43 40 33 35 31 29 28 27 31 30 27 33 32 31 30 28 34 31 32 30 39 38 36 49 33 32 30 34 34 35 33 36 39 36 31 33 35 35 37 37 39 38 38 39 42 40 40 40 41 41 36 35 35 37 39 40 40 40 40 40 40 40 40 41 40 41 42 43
46 47 47 47 47 48 49 49 49 48 44 40 37 36 39 45 44 47 44 40 35 32 30 32 31 29 29 31 23 27 32 29 29 28 24 33 37 31 29 33 34 26 31 31 32 31 33 36 33 35 35 35 37 32 31 33 36 37 38 38 39 39 39 40 41 41 40 40 41 40 39 39 40 40 40 40 40 41 42 41 41 41 42 42 43 44 44
46 46 47 47 47 47 48 49 44 43 39 37 37 40 41 46 49 49 45 38 31 26 28 28 29 28 25 23 24 27 31 29 28 30 24 30 35 30 31 26 28 24 29 33 29 29 28 31 37 32 33 34 33 32 31 33 35 36 37 38 38 39 38 37 37 39 40 40 40 40 40 40 39 39 40 40 41 41 41 40 40 40 40 41 41 42 42
45 46 46 46 46 48 44 45 45 43 39 38 37 42 47 48 49 44 42 39 36 30 27 27 26 25 23 20 18 24 32 29 32 31 29 29 29 32 31 28 25 28 35 30 27 30 27 35 31 29 32 30 31 32 34 35 35 35 36 36 38 39 38 37 38 40 40 41 41 41 40 40 39 40 40 40 40 40 41 41 41 41 41 41 42 42 42
45 46 46 46 45 43 39 39 43 43 39 38 42 48 48 47 44 43 40 38 39 39 33 29 27 28 25 23 23 27 27 21 28 24 28 26 27 26 27 24 25 31 27 26 24 26 31 36 29 26 27 28 30 34 34 35 35 35 35 35 38 41 41 40 40 40 39 39 39 40 40 40 40 41 40 40 40 40 40 40 41 41 40 40 41 41 42
45 45 44 42 39 32 31 31 37 41 46 46 47 39 37 36 31 29 32 30 33 42 33 32 29 28 28 27 26 31 23 21 26 22 25 24 26 26 27 27 29 29 24 24 28 31 30 29 27 27 27 31 33 34 35 35 36 36 36 37 39 41 41 40 40 39 38 38 38 39 40 40 39 40 40 40 41 40 41 42 42 42 42 42 42 43 42
44 43 42 42 37 31 30 32 40 46 44 43 39 33 30 28 27 28 29 32 35 35 35 34 30 29 29 28 30 31 23 22 21 23 18 28 23 26 25 24 28 25 23 20 27 32 25 26 24 24 26 30 30 30 34 37 36 35 36 37 38 39 41 40 40 39 38 37 38 39 40 39 39 41 43 42 42 43 43 43 43 43 43 43 43 44 43
42 39 36 35 35 36 39 41 46 44 39 35 30 27 29 29 28 25 25 32 32 30 36 32 34 30 31 29 27 25 28 23 17 14 21 25 28 22 25 22 26 23 21 18 25 31 24 22 22 22 25 28 30 32 38 40 40 40 40 40 40 41 41 41 42 42 41 41 42 42 42 43 43 43 44 43 43 43 43 43 43 43 43 43 44 43 42
40 39 38 35 37 37 38 40 39 36 32 32 31 28 27 27 26 23 26 25 24 24 31 33 31 31 31 28 27 26 28 31 26 27 26 23 31 29 22 19 25 22 20 18 27 25 23 20 19 21 28 29 32 37 38 39 40 41 42 43 43 41 40 40 41 41 40 40 42 44 45 45 45 45 45 44 43 42 42 42 42 43 43 42 41 41 41
39 38 38 39 40 40 38 37 30 30 30 31 31 26 25 24 23 23 21 23 22 21 24 29 27 29 29 31 29 27 26 29 29 27 24 25 29 24 22 22 23 19 17 24 27 23 20 18 17 19 25 31 37 38 39 41 41 39 40 42 43 45 46 45 43 42 42 43 44 43 43 45 44 43 43 43 42 41 41 41 41 41 41 40 41 41 41
44 43 42 37 34 32 30 32 32 29 27 29 26 24 22 22 22 21 20 22 24 24 25 29 28 30 30 33 30 28 28 31 26 25 23 22 25 24 21 21 20 18 21 25 22 18 17 16 16 23 29 34 38 37 36 38 39 39 38 39 40 43 45 48 47 46 47 47 47 46 45 44 44 43 43 43 42 42 42 42 41 42 41 41 41 40 40
42 41 36 32 33 31 28 25 30 30 29 29 26 22 20 19 18 19 20 23 24 24 26 27 26 26 25 29 27 28 30 30 30 23 24 23 22 21 20 19 18 23 25 19 18 16 18 18 21 27 32 35 39 39 37 37 38 40 41 43 45 46 47 47 46 46 45 43 43 43 42 41 41 40 41 40 41 40 40 40 40 40 40 39 38 38 38
35 32 32 29 28 26 27 23 32 28 24 26 24 19 18 16 16 21 22 25 25 25 28 26 27 26 26 30 30 28 29 25 27 24 23 22 20 20 19 19 20 18 17 17 15 15 16 18 23 29 32 36 36 37 39 41 43 44 45 44 44 44 44 44 44 44 42 41 39 39 38 37 37 37 38 39 39 40 40 38 39 39 38 36 35 35 36
33 30 28 27 24 27 25 24 28 25 26 24 24 24 23 22 21 23 25 26 25 25 26 28 28 28 25 29 28 26 27 24 24 22 22 20 19 19 20 22 20 18 16 16 18 16 18 21 24 29 31 34 36 38 39 40 42 43 43 42 42 43 43 43 43 42 39 39 39 38 37 37 36 36 35 37 38 39 39 39 39 38 37 34 34 34 36
32 31 29 24 24 26 27 23 25 26 26 26 26 26 24 24 25 25 28 27 25 27 28 30 31 30 26 27 28 27 26 26 24 25 23 21 19 20 23 20 20 17 14 14 14 16 22 25 26 30 33 35 37 39 40 40 41 42 42 43 43 44 45 44 43 40 38 39 39 38 37 36 36 36 36 34 35 36 37 38 38 38 36 34 35 36 36
29 29 27 22 21 23 24 24 26 25 26 26 26 28 28 27 25 25 27 29 30 30 30 30 28 29 28 31 31 28 27 26 27 29 29 27 26 23 21 19 18 17 15 14 17 22 24 27 30 34 35 36 37 37 39 40 42 43 43 43 44 44 44 43 41 39 39 37 37 36 37 37 36 35 34 34 35 35 36 37 38 38 37 36 36 36 36
29 27 27 26 27 25 24 26 25 25 26 25 26 25 26 26 27 27 28 29 28 28 31 29 28 29 28 25 28 28 28 29 27 28 29 28 26 23 22 19 19 18 20 23 24 25 27 29 32 33 35 36 37 38 38 39 39 39 41 42 42 41 41 40 40 39 39 38 38 37 36 37 37 36 36 35 34 34 36 38 38 37 37 35 35 35 35
31 30 28 27 25 24 27 24 26 25 25 25 25 24 24 25 26 27 30 28 28 29 28 29 31 29 27 27 23 24 24 26 27 27 28 27 27 26 22 19 20 19 22 26 27 29 31 32 31 33 34 34 35 35 34 36 36 37 37 37 38 39 42 41 39 36 38 39 38 38 37 38 36 36 35 34 35 35 37 37 37 36 36 36 36 34 33
31 29 29 29 25 19 22 20 23 23 25 25 27 27 25 24 24 26 29 29 31 29 26 24 23 23 23 23 25 24 25 25 26 24 22 24 28 26 24 20 21 24 27 30 31 32 32 33 32 33 34 34 35 37 36 36 35 35 35 36 37 37 37 37 37 37 37 38 39 35 37 37 37 37 38 37 37 36 36 36 36 36 36 36 35 34 32
29 27 27 28 30 26 26 28 29 28 27 26 26 28 27 26 28 30 32 31 30 26 24 22 24 22 20 20 22 23 24 27 25 22 21 21 25 24 23 25 28 32 34 35 36 35 34 35 34 35 36 37 38 38 37 38 38 36 38 38 36 34 35 35 35 36 36 37 38 37 37 38 38 38 38 36 36 34 34 34 35 36 36 35 35 35 33